Location: Austin
(30.3000°N, 97.7500°W)
Time: 01:16:04
(UTC-06:00)

Daily predictions for brighter satellites

Satellite Brightness Start Highest point End
(mag) Time Altitude Azimuth Time Altitude Azimuth Time Altitude Azimuth
SJ 16-02 4.2 04:29:04 14° SE 04:29:04 14° SE 04:29:44 10° SE
Cosmos 1697 Rocket 3.8 04:33:30 40° ESE 04:33:30 40° ESE 04:37:36 10° SE
Milstar 3 Cent rocket 3.7 04:34:20 46° S 04:34:20 46° S 04:45:33 10° SE
Lacrosse 5 rocket 3.5 04:44:52 26° ESE 04:44:52 26° ESE 04:46:55 10° SE
CZ-4C R/B 2.7 05:13:20 43° N 05:13:20 43° N 05:17:14 10° NNE
Cosmos 1980 Rocket 2.5 05:11:00 38° N 05:13:06 62° ENE 05:18:40 10° SSE
Cosmos 2279 Rocket 3.8 05:11:51 47° NNW 05:13:47 82° W 05:19:58 10° S
Okean-O 3.9 05:09:43 10° NNE 05:13:53 40° E 05:18:03 10° S
Cosmos 773 Rocket 3.9 05:17:34 10° SSW 05:22:40 82° ESE 05:27:49 10° NNE
Meteor 2-20 4.3 05:20:51 10° SSW 05:26:53 68° W 05:32:58 10° N
Meteosat 1 Rocket2 4.1 05:28:37 31° SSW 05:28:37 31° SSW 05:31:55 10° SE
SL-16 Debris 4.1 05:30:40 46° S 05:30:56 47° S 05:33:29 10° E
Cosmos 192 4.2 05:28:55 10° SSW 05:33:48 88° ESE 05:38:43 10° NNE
Cosmos 2180 Rocket 4.4 05:31:22 20° NNW 05:35:53 66° W 05:42:02 10° S
IDEFIX/ARIANE 42P 2.9 05:34:58 10° NNE 05:40:11 68° ESE 05:45:22 10° S
OAO 3 Copernicus 4.3 05:40:49 49° WNW 05:41:56 64° NNW 05:46:56 10° ENE
Meteor 2-4 Rocket 3.5 05:39:09 18° NNW 05:43:14 74° W 05:48:50 10° S
SKYMED 2 3.8 05:43:34 10° SSE 05:47:51 68° ENE 05:52:10 10° N
MTI 3.7 05:47:40 10° SSE 05:50:50 81° E 05:51:56 38° N
Meteor 1-11 Rocket 4.3 05:45:37 10° SW 05:51:01 36° WNW 05:56:23 10° NNW
Meteor 1-28 Rocket 4.0 05:48:16 10° SSW 05:50:57 33° SW 05:50:57 33° SW
SL-16 R/B 3.3 05:48:05 10° N 05:53:28 43° ENE 05:58:48 10° SE
Cosmos 1538 Rocket 4.5 05:51:37 10° SW 05:56:23 36° WNW 06:01:13 10° N
Nadezhda 4 Rocket 4.1 05:52:55 10° SSW 05:58:47 47° W 06:04:39 10° N
Cosmos 2322 Rocket 3.2 05:53:29 10° N 05:58:57 47° ENE 06:04:23 10° SE
Cosmos 2360 4.4 05:56:30 23° NW 05:59:51 52° WSW 06:05:20 10° S
BREEZE-M DEB (TANK) 3.8 06:01:22 18° N 06:01:22 18° N 06:02:33 10° NNE
EO 1 Del DPAF 3.2 05:56:36 10° SSE 06:00:24 81° ENE 06:04:13 10° N
Feng Yun 1-1 Rocket 4.4 05:56:50 10° N 06:02:25 53° WNW 06:07:49 10° SSW
SJ 16-02 3.6 06:06:08 10° SW 06:06:08 10° SW 06:06:13 10° SW
Meteor 1-4 Rocket 2.6 06:00:46 10° SSW 06:04:29 60° W 06:08:14 10° N
Cosmos 923 Rocket 3.9 05:59:47 10° SSW 06:05:02 75° WNW 06:10:16 10° NNE
Cosmos 2285 Rocket 4.0 06:00:47 10° SSW 06:07:06 86° ESE 06:13:25 10° NNE
Cosmos 1697 Rocket 4.1 06:15:18 17° W 06:15:42 17° W 06:19:10 10° SW
APEX 2.9 06:15:12 10° SW 06:18:10 53° WNW 06:21:48 10° NNE
Cosmos 1500 3.4 06:15:38 10° SSW 06:19:21 47° W 06:23:04 10° N
OAO 2 Rocket 4.3 06:16:56 17° W 06:20:21 37° SSW 06:25:07 10° SE
Lacrosse 5 rocket 3.5 06:20:35 13° WSW 06:21:15 13° WSW 06:23:21 10° SW
Cosmos 2112 Rocket 3.9 06:16:14 10° SSW 06:21:25 83° WNW 06:26:37 10° NNE
Cosmos 1833 4.2 06:16:11 10° SSW 06:21:45 89° ESE 06:27:21 10° NNE
Okean 1-7 Rocket 3.9 06:18:21 10° N 06:22:53 74° E 06:27:26 10° S
RESURS DK-1 3.8 06:25:56 17° WNW 06:27:24 20° WSW 06:30:29 10° SSW
Cosmos 1025 Rocket 2.9 06:24:26 10° NNW 06:28:39 65° W 06:32:54 10° S
Cosmos 1271 Rocket 3.9 06:27:28 10° SSE 06:31:06 45° E 06:34:42 10° NNE
GPS 2-05 Rocket1 2.7 06:30:30 11° WSW 06:33:48 78° NNW 06:37:11 10° ENE
COSMO-SKYMED 1 3.5 06:32:11 10° SSW 06:35:56 29° W 06:39:43 10° NW
Cosmos 1184 Rocket 2.7 06:33:06 10° N 06:36:26 84° W 06:39:46 10° S
Aurora 2 Rocket 3.5 06:34:38 10° WSW 06:38:10 39° S 06:42:55 10° ESE
CZ-4 R/B 2.5 06:38:21 10° NNE 06:42:28 51° E 06:46:34 10° S
USA 234 3.3 06:37:49 10° SE 06:44:22 89° NE 06:50:58 10° NW
Okean-O 4.3 06:47:47 10° NW 06:49:57 14° WNW 06:52:09 10° W
Cosmos 1666 2.6 06:47:45 10° S 06:51:36 73° W 06:55:25 10° N
CZ-2C R/B 3.2 06:47:54 10° NNW 06:51:52 26° WNW 06:55:44 10° SW
Lacrosse 5 3.1 06:47:46 10° SSW 06:52:37 48° ESE 06:57:28 10° NE
Cosmos 2026 Rocket 4.4 06:48:04 10° SSW 06:53:53 41° W 06:59:49 10° N
Cosmos 1655 Rocket 4.1 06:48:20 10° SSW 06:54:26 60° W 07:00:38 10° N
GEOS 3 Rocket 4.0 06:49:34 10° NNE 06:54:40 45° NW 06:59:41 10° SW
Cosmos 389 Rocket 2.7 06:51:38 10° SSW 06:55:10 50° W 06:58:42 10° N
Cosmos 2360 Rocket 2.9 06:49:42 10° N 06:55:18 58° ENE 07:00:51 10° SSE
Cosmos 1066 Rocket 4.1 06:50:35 10° NNW 06:55:55 68° W 07:01:20 10° S
